Погода Пушкинские Горы

Погода Пушкинские Горы : погода сейчас, прогноз погоды и архив. Всё, что Вы хотите узнать о погоде Пушкинские Горы!

Хотите узнать прогноз погоды Пушкинские Горы? Тогда Вам сюда: Погода Пушкинские Горы

Поиск расширенной информации на нашем сайте:

Другие новости

Новости СМИ2

Главная страница сайта

Новости сайта

03.07.2017

Напоминаем, что на нашем специализированном сайте Метеоцентр.Азия вы можете получить высокодетализированные автоматические прогнозы погоды по пунктам России, СНГ и мира в авиационном формате (включающие направление и скорость ветра, видимость, явления погоды, количество и форму облачности, нижнюю и верхнюю границу облачности).


Погода Пушкинские Горы - сегодня

Время (UTC), дата Ветер
(°,м/с) 
Видим.   Явления Облачность Т
(°С)
Тd
(°С)
f(%) Тe
(°С)
Pmin
(гПа)
dP
(гПа)
Po
(мм)
O2
(г/м3)
Тmin Tmax R s Состояние
почвы
09 22.11.17 тихо ()   4000 м  дымка{туман}  10/10 300 м кучево-дожд. 
[Cb cap]
-2.4 -2.8 97 -2  1014.8  1.7  752  306           
12 22.11.17 тихо ()   10 км  {туман}  10/10 300 м кучево-дожд. 
[Cb cap]
-1.4 -1.7 98 -1  1015.7  0.9  752  305           
15 22.11.17 тихо ()   10 км    10/10 300 м кучево-дожд. 
[Cb cap]
-1.3 -1.7 97 -1  1016.9  1.2  753  305           
18 22.11.17 тихо ()   10 км    10/10 300 м кучево-дожд. 
[Cb cap]
-2.3 -2.8 96 -2  1018.4  1.4  754  307    -0.9       
21 22.11.17 тихо ()   10 км    10/10 300 м кучево-дожд. 
[Cb cap]
-2.5 -3.1 96 -3  1019.1  0.6  755  307           
00 23.11.17 тихо ()   10 км    10/10 300 м кучево-дожд. 
[Cb cap]
-2.6 -3.2 96 -3  1020.2  1.2  755  308           
03 23.11.17 тихо ()   10 км    10/10 300 м кучево-дожд. 
[Cb cap]
-2.3 -2.9 96 -2  1020.5  0.3  756  307  -3.4         
06 23.11.17 тихо ()   10 км    4/3 600 м кучево-дожд., средняя 
[Cb cap|Ac trans]
-3.6 -4.9 91 -4  1020.7  0.1  756  309  -3.6      равномерный
сухой снег
100% 
09 23.11.17 180 (Ю) 20000 м    9/9 600 м кучево-дожд. 
[Cb cap]
-2.4 -3.9 89 -3  1021  0.4  756  308           
12 23.11.17 150 (ЮВ) 20000 м    10/10 600 м 
[Sc]
-1.9 -3.8 87 -4  1020  -1  755  307           
15 23.11.17 150 (ЮВ) 10 км    10/10 600 м 
[Sc]
-1.8 -3.7 87 -4  1019.6  -0.4  755  307           
18 23.11.17 150 (ЮВ) 10 км    10/10 600 м 
[Ns]
-1.2 -3.5 84 -3  1018.5  -1  754  306    -1.2       
21 23.11.17 160 (Ю) 10 км    10/10 600 м 
[Ns]
-0.7 -3.3 83 -3  1017.8  -0.7  754  305           
00 24.11.17 170 (Ю) 20000 м    4/0 верхняя 
[Ci fib]
-0.3 -3.1 81 -3  1016.8  -1  753  304           
03 24.11.17 160 (Ю) 5{10}  20000 м    9/0 средняя 
[Ac und]
+0.3 -2.2 83 -3  1015.7  -1  752  303  -1.8         
06 24.11.17 180 (Ю) 20000 м    6/0 средняя 
[Ac trans]
+0.2 -2.7 81 -2  1015.8  752  303  -1.2      равномерный
сухой снег
100% 
09 24.11.17 190 (Ю) 20000 м    10/10 300 м кучево-дожд. 
[Cb cap]
+1.1 -1.4 83 -1  1016.3  0.5  753  302           
12 24.11.17 200 (Ю) 20000 м    10/10 300 м кучево-дожд. 
[Cb cap]
+1 -1.1 86 -1  1016.9  0.6  753  302           
15 24.11.17 190 (Ю) 20000 м    10/10 300 м кучево-дожд. 
[Cb cap]
+0.9 -0.8 88 -1  1016.2  -0.7  753  302           
18 24.11.17 180 (Ю) 10 км    10/10 300 м кучево-дожд. 
[Cb cap]
+0.9 -0.9 88 -1  1015.5  -0.7  752  302    +1.1       
21 24.11.17 170 (Ю) 4{10}  10 км    10/10 300 м кучево-дожд. 
[Cb cap]
+0.6 -0.9 90 -2  1014.6  -0.7  751  302           
00 25.11.17 160 (Ю) 4{10}  10 км    10/10 300 м кучево-дожд. 
[Cb cap]
+0.6 -0.7 91 -2  1013.3  -1.3  750  302           
03 25.11.17 180 (Ю) 4000 м  слаб. ливневой дождь  10/10 300 м кучево-дожд. 
[Cb cap]
+0.8 -0.2 93 -2  1012.4  -1.3  750  301  +0.5    0.0     
06 25.11.17 180 (Ю) 10 км  в посл. час ливневой дождь  10/10 300 м кучево-дожд. 
[Cb cap]
+0.9 +0.3 96 -1  1012.6  -0.1  750  301  +0.5    0.9  равномерный
мокрый или
старый снег
100% 
09 25.11.17 190 (Ю) 10 км  в посл. час ливневой дождь  10/10 300 м кучево-дожд. 
[Cb cap]
+1.6 +1.2 97 1013.3  -0.1  751  300           
Время (UTC), дата Ветер
(°,м/с) 
Видим.   Явления Облачность Т
(°С)
Тd
(°С)
f(%) Тe
(°С)
Pmin
(гПа)
dP
(гПа)
Po
(мм)
O2
(г/м3)
Тmin Tmax R s Состояние
почвы

Для получения пояснительной информации подведите курсор к названию столбца.

ПОГОДА Пушкинские Горы - архив

Всё, что Вы хотите узнать о погоде Пушкинские Горы - удобно и подробно!

Выберите нужную дату (начиная с 1 января 2015* года) и нажмите кнопку "Найти".
Будут отображены архивные сводки погоды по пункту Пушкинские Горы, начиная с указанной даты.


Отображать данные в формате CSV (для использования в таблицах Excel)


Внимание! Наш архив погоды предназначен исключительно для личного некоммерческого использования в познавательных целях. Если Вам необходимы официальные справки о состоянии погоды (для производственных, юридических, коммерческих и т.п. целей), обращайтесь в органы Росгидромета.

*Примечание: данная дата относится к архиву по метеостанциям СССР (Россия, СНГ, Балтия).
Архив по метеостанциям Зарубежной Европы и Азии (кроме Китая) хранится 10 дней, по другим регионам земного шара (Китай, Африка, Америка, Австралия, Океания) - 1 день.

Пушкинские Горы - район местоположения метеостанции


Название, широта, долгота, высота метеостанции:
Пушкинские Горы 57°ш. 28.9°д. 108 м над ур. моря [Российская Федерация]

Дополнительная информация

В oтличие oт бoльшинства пoгoдных сайтoв мы публикуем пoдрoбную метеoинфoрмацию в детальнoм прoфессиoнальнoм фoрмате.

Характеристики температуры и влажнoсти вoздуха измеряются на высoте 2 м в тени вдали oт зданий и деревьев.
Скoрoсть ветра измеряется на высoте 10 м (на урoвне рoста челoвека скoрoсть ветра ниже в 1.5-2 раза). Если метеoстанция нахoдится в гoрoде или в лесу, тo скoрoсть ветра занижена на 2-4 м/с пo сравнению с oткрытым местoм. Скoрoсть ветра над акватoриями крупных рек и oзёр, а также на вершинах хoлмoв на 2-5 м/с выше, чем в oбычных услoвиях.
Атмoсфернoе давление в разных тoчках местнoсти мoжет значительнo oтличаться oт давления на метеoстанции, в зависимoсти oт услoвий рельефа (при пoдъёме на 10 м давление пoнижается примернo на 1 мм рт.ст.).